Location: Newark
(52.8300°N, 8.0000°E)
Time: 18:40:11
(UTC+00:00)

STARLINK-1108 - Pass Details

Date: 31 January 2020
Orbit: 349 x 351 km, 53.0° (Epoch: 21 February)

Event Time Altitude Azimuth Distance (km) Brightness Sun altitude
Rises 16:50:17 0° 283° (WNW) 2,186 7.7 -6.4°
Reaches altitude 10° 16:52:21 10° 278° (W) 1,340 6.7 -6.6°
Maximum altitude 16:55:14 46° 203° (SSW) 492 3.8 -7.1°
Drops below altitude 10° 16:58:07 10° 128° (SE) 1,336 5.3 -7.5°
Enters shadow 16:59:57 - 123° (ESE) 2,094 6.2 -7.7°
